カタログに戻る

STARLINK-5396

運用中通信VLEO
NORAD 54867·PAYLOAD·🇺🇸 United States

打ち上げ Dec 28, 2022 から Cape Canaveral Space Force Station

Loading…

次のパス (今後24時間)

TLE

最新Source: CelesTrak SupGP

元期: Sep 14, 2026, 22:01 UTC

1 54867C 22177AZ  26257.91784722 -.00010175  00000+0 -36839-3 0  2575
2 54867  43.0002 133.1743 0000966 252.7443 249.3373 15.27597704    10

AllMySatでSTARLINK-5396をリアルタイム追跡

Download on the App Store